Regional Weather Roundup
Issued by NWS Green Bay, WI

Home | Current Version | Previous Version | Graphics & Text | Print | Product List | Glossary Off
Versions: 1 2 3 4 5 6 7 8 9 10 11 12 13 14 15 16 17 18 19 20 21 22 23 24 25 26 27 28 29 30 31 32 33 34 35 36 37 38 39 40 41 42 43 44 45 46 47 48 49 50

000
ASUS43 KGRB 251711
RWRGRB

NORTH-CENTRAL AND NORTHEAST WISCONSIN REGIONAL WEATHER ROUNDUP
NATIONAL WEATHER SERVICE GREEN BAY WI
1200 PM CDT WED MAY 25 2016

WIZ005-009-010>012-018-019-251800-
NORTH CENTRAL WISCONSIN

CITY           SKY/WX    TMP DP  RH WIND       PRES   REMARKS
IRONWOOD       MOSUNNY   68  57  68 E9        29.99S
MANITOWISH WTR NOT AVBL
ARBOR VITAE    CLOUDY    72  61  67 SE6       30.03S
EAGLE RIVER      N/A     70  55  59 SE7       30.04F
LAND O LAKES   CLOUDY    68  57  67 E7        30.06S
RHINELANDER    MOSUNNY   66  57  72 SE9       30.04F
PHILLIPS       CLOUDY    70  59  68 E10       30.00S
ANTIGO         PTSUNNY   67  60  78 E9        30.04F
TOMAHAWK       CLOUDY    70  60  70 E6        30.02F
MERRILL        CLOUDY    66  60  81 SE7       30.02F
$$

WIZ013-073-251800-
NORTHEAST WISCONSIN

CITY           SKY/WX    TMP DP  RH WIND       PRES   REMARKS
IRON MOUNTAIN  PTSUNNY   62  54  74 SE5       30.06S
MARINETTE      CLOUDY    61  54  77 E14       30.07S
OCONTO         CLOUDY    62  60  93 E10       30.04F
$$

WIZ017-030-035>037-045-251800-
CENTRAL WISCONSIN

CITY           SKY/WX    TMP DP  RH WIND       PRES   REMARKS
MEDFORD        CLOUDY    71  62  73 E8        29.99F
WAUSAU         CLOUDY    70  59  68 E10       30.00F
MOSINEE        PTSUNNY   64  61  88 E12       30.02F
MARSHFIELD     PTSUNNY   71  59  65 E15       29.97F
WISC RAPIDS    PTSUNNY   73  57  57 E13G18    29.99F
STEVENS POINT  CLOUDY    65  57  75 E14       30.01F
WAUPACA        CLOUDY    73  59  60 NE9       30.01F
SHAWANO        CLOUDY    70  61  73 E9        30.03F
CLINTONVILLE   PTSUNNY   70  59  68 E10       30.02S
WAUTOMA        CLOUDY    71  59  65 NE9       29.99F
$$

WIZ038-039-048-051-251800-
FOX VALLEY

CITY           SKY/WX    TMP DP  RH WIND       PRES   REMARKS
NWS GREEN BAY  CLOUDY    64  57  78 NE9       30.03F
APPLETON       PTSUNNY   66  55  68 E10       30.01R
OSHKOSH        CLOUDY    68  59  73 NE9       30.00F
FOND DU LAC    PTSUNNY   76  61  59 E7        29.99F
$$

WIZ022-050-052-251800-
EAST CENTRAL WISCONSIN

CITY           SKY/WX    TMP DP  RH WIND       PRES   REMARKS
EPHRAIM        CLOUDY    55  54  95 N7        30.07R
STURGEON BAY   NOT AVBL
MANITOWOC      CLOUDY    60  55  83 NE10G17   30.04S
SHEBOYGAN      CLOUDY    58  52  80 NE15      30.03S
$$

LMZ563-521-522-541>543-251800-
LAKESHORE

STATION/POSITION TIME  TEMP    WIND        PRES    VSBY  WAVE
                       AIR SEA DIR/SP/G                  HT/PER
                 (UTC) (F)     (DEG/KT/KT) (MB)    (MI)  (FT/S)
SHEBOYGAN LKSHOR 1700   49     360/ 13/ 14 1017.4F
KEWAUNEE LKSHORE 1600   52      20/  6/  8 1016.9S
ALGOMA MARINA    1602           70/ 14/ 15   N/A
NORTHPORT PIER   1600   56      80/  1/  4 1018.3S
N MID LAKE BUOY  1650   49 45   20/  8/  8 1018.2R         0
SISTER BAY LKSHO 1650   55     340/ 12/ 14   N/A
CHAMBERS ISLAND  1600   54      40/ 10/ 13 1018.3S
MENOMINEE LKSHOR 1600   56      70/  9/ 12 1016.9F
$$



USA.gov is the U.S. government's official web portal to all federal, state and local government web resources and services.